Location: Voyageurs National Park
(48.5020°N, 92.9292°W)
Time: 06:04:53
(UTC-05:00)

Sich 1 - Pass Details

Date: 19 January 2018
Orbit: 594 x 627 km, 82.5° (Epoch: 20 May)

Event Time Altitude Azimuth Distance (km) Brightness Sun altitude
Rises 06:58:36 0° 355° (N) 2,850 6.2 -9.3°
Reaches altitude 10° 07:00:53 10° 1° (N) 1,945 5.4 -9.0°
Maximum altitude 07:05:03 47° 76° (ENE) 796 4.1 -8.3°
Drops below altitude 10° 07:09:12 10° 151° (SSE) 1,943 6.5 -7.7°
Sets 07:11:28 0° 157° (SSE) 2,846 7.2 -7.3°
